| time (UTC) | temp C | wind direction | speed KPH | gust KPH | rain 1hr cm | rain 24hr cm | rain mn cm | humidity % | barometer mb |
| 20260507161603 | 13 | 0 | 0.0 | 3.2 | 0.00 | 0.00 | 0.00 | 74 | 1015.0 |
| 20260507160059 | 13 | 0 | 0.0 | 3.2 | 0.00 | 0.00 | 0.00 | 70 | 1014.9 |
| 20260507154601 | 13 | 0 | 0.0 | 3.2 | 0.00 | 0.00 | 0.00 | 71 | 1014.9 |
| 20260507153101 | 13 | 0 | 0.0 | 3.2 | 0.00 | 0.00 | 0.00 | 71 | 1014.9 |
| 20260507151558 | 13 | 0 | 0.0 | 0.0 | 0.00 | 0.00 | 0.00 | 71 | 1014.9 |
| 20260507150057 | 13 | 0 | 0.0 | 0.0 | 0.00 | 0.00 | 0.00 | 71 | 1015.0 |
| 20260507144556 | 13 | 0 | 0.0 | 0.0 | 0.00 | 0.00 | 0.00 | 69 | 1015.0 |
| 20260507143105 | 13 | 0 | 0.0 | 0.0 | 0.00 | 0.00 | 0.00 | 69 | 1014.9 |
| 20260507141605 | 13 | 0 | 0.0 | 0.0 | 0.00 | 0.00 | 0.00 | 69 | 1015.0 |
| 20260507134614 | 13 | 0 | 0.0 | 4.8 | 0.00 | 0.00 | 0.00 | 67 | 1015.1 |
| 20260507133133 | 13 | 0 | 0.0 | 0.0 | 0.00 | 0.00 | 0.00 | 69 | 1015.0 |
| 20260507131602 | 13 | 0 | 0.0 | 4.8 | 0.00 | 0.00 | 0.00 | 72 | 1015.1 |
| 20260507130109 | 13 | 323 | 0.0 | 1.6 | 0.00 | 0.00 | 0.00 | 72 | 1015.0 |
| 20260507124601 | 13 | 0 | 0.0 | 4.8 | 0.00 | 0.00 | 0.00 | 72 | 1015.1 |
| 20260507123100 | 13 | 0 | 0.0 | 4.8 | 0.00 | 0.00 | 0.00 | 70 | 1014.9 |
| 20260507121611 | 13 | 0 | 0.0 | 3.2 | 0.00 | 0.00 | 0.00 | 70 | 1015.0 |
| 20260507120109 | 13 | 101 | 0.0 | 12.9 | 0.00 | 0.00 | 0.00 | 69 | 1015.0 |
| 20260507114638 | 13 | 125 | 4.8 | 11.3 | 0.00 | 0.00 | 0.00 | 72 | 1014.8 |
| 20260507113101 | 12 | 140 | 0.0 | 12.9 | 0.00 | 0.00 | 0.00 | 73 | 1014.9 |
| 20260507111602 | 12 | 80 | 1.6 | 11.3 | 0.00 | 0.00 | 0.00 | 74 | 1014.9 |
| 20260507110059 | 12 | 131 | 0.0 | 4.8 | 0.00 | 0.00 | 0.00 | 72 | 1015.1 |
| 20260507104558 | 12 | 0 | 0.0 | 1.6 | 0.00 | 0.00 | 0.00 | 75 | 1015.1 |
| 20260507103058 | 12 | 0 | 0.0 | 3.2 | 0.00 | 0.00 | 0.00 | 73 | 1015.0 |
| 20260507101604 | 12 | 0 | 0.0 | 3.2 | 0.00 | 0.00 | 0.00 | 75 | 1015.1 |
| 20260507094604 | 11 | 0 | 0.0 | 4.8 | 0.00 | 0.00 | 0.00 | 78 | 1014.9 |
| 20260507093059 | 11 | 320 | 1.6 | 6.4 | 0.00 | 0.00 | 0.00 | 78 | 1014.8 |
| 20260507091603 | 10 | 0 | 1.6 | 3.2 | 0.00 | 0.00 | 0.00 | 79 | 1014.7 |
| 20260507090101 | 10 | 306 | 3.2 | 6.4 | 0.00 | 0.00 | 0.00 | 80 | 1014.6 |
| 20260507084600 | 10 | 292 | 0.0 | 6.4 | 0.00 | 0.00 | 0.00 | 82 | 1014.5 |
| 20260507083057 | 10 | 0 | 0.0 | 3.2 | 0.00 | 0.00 | 0.00 | 84 | 1014.5 |
| 20260507081558 | 10 | 334 | 1.6 | 4.8 | 0.00 | 0.00 | 0.00 | 81 | 1014.4 |
| 20260507080119 | 10 | 0 | 0.0 | 4.8 | 0.00 | 0.00 | 0.00 | 83 | 1014.2 |
| 20260507074601 | 10 | 309 | 0.0 | 3.2 | 0.00 | 0.00 | 0.00 | 83 | 1014.1 |
| 20260507073108 | 9 | 0 | 0.0 | 1.6 | 0.00 | 0.00 | 0.00 | 85 | 1014.0 |
| 20260507071556 | 9 | 0 | 1.6 | 9.7 | 0.00 | 0.00 | 0.00 | 85 | 1013.7 |
| 20260507070104 | 8 | 0 | 1.6 | 12.9 | 0.00 | 0.00 | 0.00 | 86 | 1013.7 |
| 20260507064605 | 8 | 0 | 3.2 | 9.7 | 0.00 | 0.03 | 0.00 | 87 | 1013.5 |
| 20260507063105 | 8 | 336 | 4.8 | 12.9 | 0.00 | 0.03 | 0.00 | 87 | 1013.3 |
| 20260507061558 | 8 | 235 | 4.8 | 12.9 | 0.00 | 0.03 | 0.00 | 87 | 1013.3 |
| 20260507060058 | 8 | 267 | 3.2 | 11.3 | 0.00 | 0.03 | 0.00 | 88 | 1013.0 |
| 20260507054557 | 8 | 327 | 1.6 | 8.0 | 0.00 | 0.08 | 0.00 | 89 | 1013.0 |
| 20260507053108 | 8 | 306 | 1.6 | 6.4 | 0.00 | 0.08 | 0.00 | 90 | 1013.0 |
| 20260507051558 | 7 | 283 | 0.0 | 6.4 | 0.00 | 0.08 | 0.00 | 90 | 1012.8 |
| 20260507050058 | 7 | 302 | 0.0 | 4.8 | 0.00 | 0.08 | 0.00 | 90 | 1012.6 |
| 20260507044559 | 7 | 284 | 1.6 | 4.8 | 0.00 | 0.08 | 0.00 | 90 | 1012.3 |
| 20260507043058 | 7 | 309 | 1.6 | 8.0 | 0.00 | 0.08 | 0.00 | 90 | 1012.1 |
| 20260507041559 | 7 | 299 | 1.6 | 8.0 | 0.00 | 0.08 | 0.00 | 90 | 1012.0 |
| 20260507034559 | 7 | 326 | 1.6 | 6.4 | 0.00 | 0.08 | 0.00 | 91 | 1011.9 |
| 20260507033329 | 7 | 262 | 1.6 | 12.9 | 0.00 | 0.08 | 0.00 | 91 | 1011.9 |
| 20260507031746 | 7 | 318 | 3.2 | 8.0 | 0.00 | 0.08 | 0.00 | 91 | 1011.9 |
| 20260507024614 | 7 | 0 | 1.6 | 6.4 | 0.00 | 0.08 | 0.00 | 90 | 1011.7 |
| 20260507023142 | 7 | 291 | 1.6 | 6.4 | 0.00 | 0.08 | 0.00 | 90 | 1011.7 |
| 20260507020142 | 7 | 278 | 3.2 | 11.3 | 0.00 | 0.08 | 0.00 | 90 | 1011.4 |
| 20260507014637 | 7 | 324 | 1.6 | 9.7 | 0.00 | 0.08 | 0.00 | 90 | 1011.6 |
| 20260507013059 | 7 | 251 | 1.6 | 9.7 | 0.00 | 0.08 | 0.00 | 90 | 1011.3 |
| 20260507011614 | 7 | 238 | 3.2 | 9.7 | 0.00 | 0.08 | 0.00 | 89 | 1011.2 |
| 20260507010104 | 7 | 252 | 3.2 | 11.3 | 0.00 | 0.08 | 0.00 | 89 | 1011.2 |
| 20260507004607 | 7 | 241 | 1.6 | 6.4 | 0.00 | 0.08 | 0.00 | 88 | 1011.1 |
| 20260507003059 | 7 | 251 | 1.6 | 6.4 | 0.00 | 0.08 | 0.00 | 87 | 1011.1 |
| 20260507001556 | 7 | 279 | 1.6 | 8.0 | 0.00 | 0.08 | 0.00 | 87 | 1010.9 |
| 20260507000056 | 7 | 331 | 3.2 | 9.7 | 0.00 | 0.08 | 0.00 | 87 | 1010.8 |
| 20260506234559 | 7 | 217 | 1.6 | 8.0 | 0.00 | 0.08 | 0.00 | 86 | 1010.9 |
| 20260506233109 | 8 | 323 | 1.6 | 11.3 | 0.00 | 0.08 | 0.00 | 86 | 1010.8 |
| 20260506231602 | 8 | 311 | 3.2 | 12.9 | 0.00 | 0.08 | 0.00 | 87 | 1010.7 |
| 20260506230058 | 8 | 321 | 3.2 | 9.7 | 0.00 | 0.08 | 0.00 | 86 | 1010.8 |
| 20260506224600 | 8 | 305 | 1.6 | 14.5 | 0.00 | 0.08 | 0.00 | 87 | 1010.7 |
| 20260506223057 | 8 | 251 | 3.2 | 11.3 | 0.00 | 0.08 | 0.00 | 86 | 1010.6 |
| 20260506221611 | 8 | 0 | 1.6 | 6.4 | 0.00 | 0.08 | 0.00 | 85 | 1010.6 |
| 20260506220056 | 8 | 282 | 0.0 | 6.4 | 0.00 | 0.08 | 0.00 | 86 | 1010.4 |
| 20260506214558 | 8 | 243 | 3.2 | 6.4 | 0.00 | 0.08 | 0.08 | 85 | 1010.3 |
| 20260506213115 | 8 | 269 | 1.6 | 8.0 | 0.00 | 0.08 | 0.08 | 85 | 1010.0 |
| 20260506211558 | 8 | 319 | 3.2 | 8.0 | 0.00 | 0.08 | 0.08 | 85 | 1009.8 |
| 20260506210058 | 8 | 319 | 1.6 | 8.0 | 0.00 | 0.08 | 0.08 | 84 | 1009.8 |
| 20260506204556 | 8 | 302 | 3.2 | 9.7 | 0.00 | 0.56 | 0.08 | 83 | 1009.7 |
| 20260506203059 | 8 | 304 | 3.2 | 8.0 | 0.00 | 0.56 | 0.08 | 83 | 1009.7 |
| 20260506201559 | 9 | 236 | 3.2 | 9.7 | 0.00 | 0.56 | 0.08 | 83 | 1009.5 |
| 20260506200058 | 9 | 248 | 1.6 | 6.4 | 0.00 | 0.56 | 0.08 | 85 | 1009.4 |
| 20260506194602 | 9 | 244 | 3.2 | 8.0 | 0.00 | 0.71 | 0.08 | 84 | 1009.2 |
| 20260506193058 | 9 | 303 | 3.2 | 11.3 | 0.00 | 0.71 | 0.08 | 83 | 1009.0 |
| 20260506191556 | 9 | 325 | 3.2 | 9.7 | 0.00 | 0.71 | 0.08 | 83 | 1008.8 |
| 20260506190106 | 9 | 276 | 6.4 | 14.5 | 0.00 | 0.71 | 0.08 | 83 | 1008.6 |
| 20260506184604 | 10 | 319 | 3.2 | 9.7 | 0.00 | 0.79 | 0.08 | 82 | 1008.5 |
| 20260506183104 | 10 | 307 | 1.6 | 4.8 | 0.00 | 0.79 | 0.08 | 83 | 1008.4 |
| 20260506181623 | 10 | 330 | 4.8 | 14.5 | 0.00 | 0.79 | 0.08 | 81 | 1008.2 |
| 20260506180101 | 10 | 233 | 4.8 | 16.1 | 0.00 | 0.79 | 0.08 | 82 | 1007.9 |
| 20260506174559 | 10 | 225 | 3.2 | 11.3 | 0.00 | 0.79 | 0.08 | 82 | 1007.9 |
| 20260506173113 | 10 | 325 | 4.8 | 17.7 | 0.00 | 0.79 | 0.08 | 82 | 1007.8 |
| 20260506171606 | 10 | 309 | 4.8 | 17.7 | 0.00 | 0.79 | 0.08 | 84 | 1007.7 |
| 20260506170105 | 10 | 221 | 3.2 | 14.5 | 0.00 | 0.79 | 0.08 | 84 | 1007.6 |
| 20260506164614 | 11 | 323 | 4.8 | 12.9 | 0.00 | 0.84 | 0.08 | 83 | 1007.7 |
| 20260506163105 | 11 | 252 | 3.2 | 16.1 | 0.00 | 0.84 | 0.08 | 83 | 1007.6 |